Temp_Advection
nan nan nan nan nan nan nan nan nan nan nan nan nan nan nan nan nan nan nan nan nan nan nan nan nan nan nan nan nan nan nan nan nan nan nan nan nan nan nan nan nan nan nan nan nan
nan -0 -0 -0 -0 -0 -0 0 0 0 0 -0 -0 -0 0 0 0 -1 -1 -1 -0 0 0 0 -0 0 -0 0 0 0 -0 -1 -1 -1 0 -0 -0 -2 -1 -1 0 0 0 0 nan
nan -0 -0 -0 -0 -0 -0 -0 -0 0 0 -0 -0 -0 0 0 -0 -1 -2 -0 0 0 0 0 0 0 -0 0 0 0 -1 -0 0 1 1 -0 -1 -1 -1 -0 -0 -1 -1 -0 nan
nan -0 -0 -0 -0 -0 -0 -0 -0 -0 0 -0 -0 -0 0 0 -0 0 0 -0 0 0 0 0 0 0 0 0 -0 -0 -1 0 0 1 0 -1 -0 -1 -2 -1 -0 -0 -0 -0 nan
nan 0 0 0 -0 -0 -0 -0 -0 -0 -0 0 -0 -0 0 0 -1 -0 -0 -1 -0 -0 -0 -0 0 -0 -0 -0 0 -0 -0 0 0 1 -0 0 0 -0 -2 -2 -0 1 1 0 nan
nan 0 0 0 -0 -0 -0 -0 -0 -0 -0 0 0 0 -0 -0 -0 -0 -0 -0 -0 -0 -0 -0 -0 -0 -0 -0 -0 -0 0 0 -0 -1 -1 -1 -0 -0 -3 -1 -0 0 -0 0 nan
nan 0 0 -0 0 0 0 0 0 0 0 0 0 0 0 -0 0 -0 0 1 1 0 -0 -0 -0 -0 -0 -0 -0 0 0 0 0 -0 -0 -1 -0 -1 -4 -1 -0 0 -0 -0 nan
nan 0 0 0 0 0 0 0 0 0 0 0 -0 -0 -0 0 0 0 0 0 0 0 0 0 -0 -0 0 0 0 0 0 0 -0 0 0 0 -0 -2 -2 -1 -1 0 0 0 nan
nan 0 0 0 0 0 0 0 -0 -0 -0 -0 -0 -0 -0 -0 0 0 -0 -0 -0 -0 1 1 0 0 0 0 0 0 0 -0 0 0 0 0 0 -0 -0 0 -0 -0 -0 0 nan
nan 0 0 0 0 0 0 -0 0 -0 -0 -0 0 -0 -0 -0 -0 -0 -0 -0 0 0 0 0 0 0 0 -0 -0 0 -0 -0 -0 0 0 0 0 -0 -0 -0 -0 -0 0 -0 nan
nan 0 -0 0 0 0 0 -0 0 -0 0 0 -0 -0 -0 -0 -0 0 0 0 0 -0 0 0 0 -0 -0 -0 0 -0 0 0 -0 -0 0 0 -0 -0 -0 0 -1 -1 -0 -0 nan
nan 0 0 -0 -0 -0 0 -0 -0 0 -0 -0 0 -0 -0 -0 0 0 0 -0 -0 0 0 -0 -0 -0 0 0 0 -0 0 0 0 0 0 0 0 0 0 -0 -1 -0 -1 -0 nan
nan -0 0 0 0 -0 -0 -0 -0 -0 -0 -0 0 0 0 -0 0 0 -0 -0 -0 0 -0 0 0 0 -0 0 0 -0 -0 -0 0 0 -0 -0 -0 0 -0 -1 -1 -1 -1 0 nan
nan -0 0 0 0 0 0 0 0 0 0 0 -0 0 -0 -0 -0 0 0 -0 -0 0 0 0 0 0 0 -0 -0 -0 -0 -0 0 0 0 0 0 -0 -0 1 -0 -1 -1 0 nan
nan 0 0 0 0 0 -0 0 0 0 0 -0 -0 0 -0 -0 -0 -0 -0 0 -0 -0 -0 0 0 0 0 -0 -0 -0 0 0 0 0 0 0 -0 -0 0 -0 -1 0 -0 1 nan
nan 0 0 0 0 0 0 0 0 0 0 -0 0 -0 0 -0 -0 -0 0 0 0 -0 -0 0 -0 0 0 0 0 -0 -0 -1 -0 -0 -0 0 0 -0 -0 -0 0 0 0 1 nan
nan 0 0 0 0 0 0 0 0 1 -0 0 -0 -0 -0 -0 0 0 -0 0 -0 -0 -0 0 -0 -0 -0 0 -0 -0 -1 -0 0 -0 -0 0 0 -1 0 0 -0 -1 -0 1 nan
nan -0 0 0 0 0 -0 -0 1 -0 -0 -0 -0 -0 0 -0 -0 -0 -0 0 0 -0 -0 0 0 0 -0 0 0 0 -0 -0 0 -0 0 0 -0 -0 -0 -1 -0 -1 -0 0 nan
nan -0 -0 0 -0 -0 0 0 -0 -0 -0 -0 -0 -0 0 -0 -0 -0 0 -0 0 -0 0 -0 -0 0 0 -0 0 0 0 -0 -0 -0 -0 -0 -0 -1 0 0 1 1 1 0 nan
nan -0 -0 0 0 -0 -0 -0 -0 -0 0 -0 -0 -0 -0 -0 -0 -0 -0 -0 -0 -0 -0 0 -0 -0 0 0 0 0 0 -0 0 0 -0 0 -0 -0 0 0 0 0 0 0 nan
nan 0 -0 -0 0 0 -0 -1 -0 -0 0 -0 0 0 -0 -0 -0 -0 -0 0 -0 -0 -0 -0 -0 0 0 -0 -0 -0 0 -0 -0 -0 0 -0 -0 -0 -0 -0 -0 -0 -0 0 nan
nan -0 0 -0 0 0 -0 -1 -0 -0 0 0 0 -0 -0 0 -0 -0 -0 -0 -0 -0 -0 -0 -0 0 0 -0 -0 -0 -0 -0 -0 0 0 0 -1 0 -0 -0 -0 -0 0 0 nan
nan -0 0 0 0 -0 -0 -0 -0 0 -0 0 0 0 -0 -0 -0 -0 0 0 -0 -0 -0 -0 -0 0 0 0 0 0 -0 0 -0 -0 -0 0 -0 0 -0 0 0 -0 0 0 nan
nan -0 0 -0 -0 0 -0 -0 -0 -0 -0 0 -0 -0 -0 -0 -0 -0 0 -0 0 0 -0 -0 -0 0 -0 -0 -0 -0 -0 0 -0 -0 -0 -0 -0 -0 -0 -0 0 -0 0 1 nan
nan -0 -0 -0 -0 -0 -0 -0 0 -0 -0 -0 -0 -0 -0 -0 -0 -0 -0 0 -0 -0 -0 -0 0 0 -0 -0 -0 -0 0 0 -0 -1 0 -0 0 -0 -0 -0 -0 0 0 0 nan
nan -0 0 -0 -1 -0 -0 -0 -0 -0 -0 0 -0 -0 0 -0 -0 -0 -0 -0 0 0 -0 -0 -0 -0 -0 -0 0 0 0 -0 -0 0 0 0 -0 -0 -0 0 -0 0 0 -0 nan
nan nan nan nan nan nan nan nan nan nan nan nan nan nan nan nan nan nan nan nan nan nan nan nan nan nan nan nan nan nan nan nan nan nan nan nan nan nan nan nan nan nan nan nan nan
Wind_Speed
25 26 25 24 23 23 21 18 14 15 14 16 16 16 15 17 18 20 26 29 30 12 18 18 18 15 18 15 12 23 5 12 18 12 7 13 10 12 17 6 8 4 14 25 28
26 25 23 22 20 19 16 14 12 12 11 13 12 12 12 13 19 28 27 22 29 19 23 26 25 19 13 10 12 7 11 19 14 20 6 11 15 19 10 15 8 13 17 26 28
26 24 22 17 17 14 11 7 9 8 8 7 7 9 10 11 10 21 29 25 27 27 17 23 21 22 17 10 8 10 18 7 17 24 6 11 22 21 15 5 10 19 23 25 24
25 24 21 16 13 9 6 7 5 4 3 4 5 6 7 9 6 4 11 13 22 32 20 21 22 22 12 8 11 7 11 18 8 11 12 18 18 19 18 17 11 12 18 21 23
22 23 21 18 13 9 7 4 2 1 1 1 2 6 4 8 17 5 11 19 27 33 27 26 26 19 6 8 12 3 15 20 18 18 19 13 11 13 29 23 8 19 19 16 16
21 21 20 16 11 9 7 5 4 2 3 3 2 1 1 4 11 5 8 22 33 35 34 28 22 20 8 9 12 9 5 12 18 21 24 17 13 3 27 21 11 22 16 14 11
20 18 18 16 13 7 5 5 3 2 3 4 2 2 5 5 12 15 4 21 32 37 39 34 14 19 12 5 11 10 8 3 14 22 9 18 7 16 42 20 10 18 16 14 12
19 17 14 14 12 9 4 3 3 3 4 2 1 3 6 8 6 6 5 13 24 29 34 34 18 24 5 6 9 5 6 5 4 12 11 18 14 22 32 27 16 13 12 12 12
17 16 15 11 8 7 5 2 2 2 1 3 3 4 8 7 8 2 4 2 14 19 26 29 24 11 5 6 4 3 6 8 6 17 5 9 5 11 25 28 25 17 13 14 13
15 14 14 12 8 5 2 3 5 5 5 3 2 7 3 8 10 1 4 2 5 16 19 19 10 5 4 7 16 19 9 11 8 11 7 9 5 4 15 13 25 24 19 16 14
17 12 10 9 7 10 2 2 2 1 1 0 5 8 9 10 3 2 3 3 9 10 4 10 7 17 12 4 6 10 5 5 2 7 7 12 4 9 18 12 15 24 21 17 13
20 17 9 4 3 7 4 4 4 3 3 3 8 11 11 2 1 3 7 5 3 11 6 6 12 6 9 4 7 9 7 5 1 4 8 6 14 7 12 10 20 17 21 18 15
22 22 10 5 3 1 2 4 4 3 1 4 2 2 0 1 2 4 7 12 5 13 12 7 8 10 8 4 5 2 6 5 5 3 2 4 6 7 9 15 22 24 21 21 21
24 22 11 3 4 5 3 2 1 4 2 2 1 0 2 2 3 5 4 5 4 11 8 4 2 9 8 4 4 3 6 5 7 5 4 4 5 6 9 12 11 26 28 28 22
24 22 10 5 4 5 3 3 4 1 3 4 2 2 2 4 8 4 5 3 9 8 6 2 7 10 7 7 5 5 5 8 4 5 4 1 0 6 2 8 17 19 30 25 22
21 19 7 5 6 3 2 4 2 5 3 3 1 4 2 4 3 4 3 6 6 6 9 5 5 4 2 2 3 5 6 8 5 3 1 6 6 5 6 8 5 8 24 20 20
17 13 6 5 1 3 2 3 4 5 0 1 1 5 6 2 4 4 2 4 2 5 4 5 3 2 2 5 3 3 7 2 2 1 7 3 5 17 6 7 7 11 22 25 25
13 3 3 3 2 1 5 3 7 5 2 2 4 4 2 1 4 3 3 2 3 5 4 3 5 1 3 3 3 4 4 5 6 4 4 4 8 7 8 13 17 27 31 28 23
8 2 3 0 1 2 1 4 6 6 4 6 3 1 2 2 4 3 2 4 1 3 5 4 2 0 3 2 1 4 2 1 4 2 3 5 7 9 1 2 13 23 27 25 23
2 6 4 1 1 5 1 3 2 3 1 2 4 6 4 6 5 4 6 6 4 5 3 5 4 2 3 2 1 1 3 1 2 2 4 5 5 6 5 8 10 12 20 24 22
7 4 3 2 3 2 2 4 2 2 1 1 1 1 1 5 5 5 7 3 7 5 5 6 4 3 4 6 7 3 3 3 0 3 3 2 6 5 9 10 12 14 24 25 23
4 2 1 3 2 3 1 4 1 1 2 2 1 3 3 3 4 3 5 2 14 9 6 2 5 4 3 5 7 3 4 6 4 5 3 3 6 5 7 7 14 17 24 24 24
3 3 2 1 1 3 4 2 3 1 1 3 2 3 3 3 3 3 3 4 9 4 6 5 1 3 3 1 1 5 6 5 4 2 6 5 5 5 2 8 16 20 19 22 21
3 2 1 3 0 1 4 3 2 1 1 2 2 3 2 2 4 2 2 4 3 3 4 5 3 5 6 4 4 5 11 10 8 4 6 6 5 3 3 6 10 19 22 22 20
4 3 3 3 3 4 1 7 2 2 1 1 1 1 2 1 2 2 2 2 4 2 2 3 4 3 3 2 4 4 6 17 16 15 9 9 9 6 9 10 18 21 19 21 20
5 5 5 5 10 5 7 7 8 4 0 1 1 5 2 3 1 4 4 2 3 1 2 3 1 2 4 4 4 4 7 11 18 15 12 4 6 7 13 11 14 20 22 24 22
8 4 1 6 6 2 4 5 8 11 5 6 3 2 4 2 2 3 7 7 7 7 4 3 4 3 4 3 2 7 13 14 11 10 16 11 16 3 5 12 20 23 26 25 22
Wind_Direction
336 329 323 320 310 306 294 281 282 276 267 268 268 268 255 242 226 225 232 225 212 203 196 194 202 204 184 187 188 164 137 210 205 223 264 330 354 333 343 110 106 146 157 162 159
338 336 327 318 314 309 300 282 279 275 267 274 268 259 248 227 224 235 237 233 210 208 194 198 204 197 186 178 176 148 191 209 186 202 185 311 320 331 352 323 92 112 139 159 166
351 347 344 334 322 316 312 290 291 278 272 266 264 263 236 226 242 249 237 228 214 198 199 201 202 183 191 182 166 169 209 185 201 221 249 290 301 318 334 292 159 152 150 168 174
3 357 359 353 342 343 338 327 305 299 274 274 278 313 250 212 228 75 158 228 228 202 198 189 192 182 183 182 183 167 209 179 152 203 194 237 286 301 314 311 229 191 173 165 177
5 12 11 9 11 19 4 14 28 16 64 316 313 4 217 202 233 215 278 229 217 200 190 182 177 183 179 161 171 179 181 185 168 186 213 224 259 278 295 293 266 183 175 176 172
5 10 10 12 15 12 19 34 48 42 13 359 304 236 301 263 233 252 294 209 196 190 185 184 185 181 157 163 169 185 117 136 157 178 172 166 209 276 275 284 181 162 161 170 185
1 3 5 9 12 17 28 32 42 26 3 349 303 289 289 255 171 321 96 169 180 189 186 187 182 181 168 140 180 178 192 151 168 195 190 184 167 204 243 260 213 174 172 170 174
356 357 354 355 27 38 42 39 22 10 3 24 182 252 261 352 311 338 52 174 184 193 195 184 181 188 189 160 149 154 117 143 225 166 187 177 216 209 217 237 243 202 192 191 196
356 357 358 343 348 38 32 55 43 1 25 113 69 317 285 341 17 31 237 234 188 196 174 180 185 193 227 121 107 218 155 182 178 195 171 181 186 216 208 236 244 236 211 209 213
344 354 2 356 332 337 40 64 73 78 114 79 49 304 310 321 336 344 240 245 185 175 172 177 171 157 179 163 185 188 181 194 174 193 186 199 222 275 227 256 231 233 226 226 234
348 337 342 3 353 6 11 188 143 82 53 68 296 270 297 326 69 155 202 210 168 189 104 174 164 193 180 135 126 140 108 118 180 168 180 219 187 227 256 271 267 232 225 226 237
346 336 316 309 360 13 33 90 93 85 326 236 286 280 283 285 27 105 147 96 253 171 149 181 197 148 124 160 118 138 165 187 45 195 185 207 237 226 242 239 255 243 225 224 220
338 336 314 294 262 281 348 82 101 85 251 299 351 333 328 300 77 131 132 158 235 150 195 148 139 136 148 164 148 124 158 173 153 86 62 114 287 241 252 241 251 253 245 230 225
333 334 322 260 264 256 242 221 178 333 119 19 180 313 298 168 94 151 155 216 160 153 100 61 121 141 163 184 124 166 206 177 162 125 192 147 267 247 228 234 224 244 244 240 225
333 329 315 222 222 235 288 277 263 160 65 9 16 27 26 16 134 163 218 66 116 141 201 108 128 149 159 190 139 215 170 152 124 103 117 187 133 267 216 239 229 224 223 219 210
333 323 297 218 235 218 269 290 178 50 356 281 335 98 8 297 170 116 54 54 107 94 57 64 55 63 137 76 135 146 85 46 52 84 241 199 163 259 214 224 219 200 204 195 182
333 319 265 200 317 219 217 205 41 74 212 95 147 182 226 119 38 11 107 120 134 114 62 45 20 30 18 83 34 128 101 30 18 323 233 194 158 243 249 245 206 182 185 177 173
337 329 205 198 222 242 166 57 69 233 200 190 154 176 103 175 126 123 64 58 32 92 113 129 151 142 352 68 169 164 136 153 190 203 222 148 226 251 240 257 235 194 174 169 174
345 129 134 223 154 179 229 60 185 198 179 155 144 118 113 114 103 142 147 155 233 195 100 130 109 114 54 21 59 223 156 123 109 40 67 222 284 301 201 198 157 165 171 179 181
67 130 101 355 346 170 74 238 181 237 62 174 190 173 169 178 153 151 168 192 193 219 170 182 110 299 121 161 23 95 163 87 350 145 254 272 274 238 224 188 164 164 174 178 181
123 112 95 357 298 258 159 241 246 255 325 142 78 84 175 155 162 167 178 150 185 198 169 151 114 139 141 202 167 169 190 176 96 149 205 296 263 220 219 185 171 168 176 178 180
101 80 89 27 312 238 147 220 277 233 280 307 96 52 30 10 46 99 152 230 182 162 165 151 119 149 178 185 209 230 208 190 154 218 221 149 278 327 252 178 164 166 175 180 186
66 99 166 66 351 321 303 313 325 48 344 349 16 52 42 12 69 82 93 52 173 148 163 173 121 98 17 15 207 217 201 221 98 57 208 165 257 352 73 142 169 169 177 181 184
57 48 128 228 253 349 349 272 281 318 316 11 331 18 49 50 39 125 97 27 62 102 130 117 140 167 187 194 135 201 200 192 173 183 216 217 279 295 225 178 184 187 181 185 189
56 62 10 341 25 327 294 325 204 253 284 328 344 318 64 34 89 97 85 65 29 63 93 113 175 149 242 219 157 209 194 202 211 217 207 236 223 229 212 199 193 189 188 186 193
52 26 19 325 318 310 6 3 351 355 29 149 26 326 175 111 88 188 133 184 194 81 95 21 137 83 316 255 229 258 238 213 221 228 249 252 265 230 219 202 197 201 192 194 202
53 46 23 1 343 14 15 356 340 338 36 58 323 318 80 56 316 330 202 197 175 152 155 116 124 84 268 343 351 295 227 210 216 212 213 212 223 217 222 204 209 206 199 205 212
Height
1501 1496 1491 1487 1483 1480 1478 1477 1476 1476 1475 1475 1475 1475 1476 1477 1480 1481 1479 1484 1491 1495 1498 1502 1506 1509 1511 1513 1511 1515 1527 1535 1534 1541 1535 1528 1528 1520 1520 1516 1517 1518 1519 1523 1527
1496 1491 1486 1482 1478 1474 1472 1472 1473 1472 1472 1472 1471 1472 1473 1474 1476 1474 1478 1482 1487 1493 1495 1497 1502 1506 1509 1510 1511 1513 1522 1518 1520 1526 1533 1530 1530 1532 1529 1523 1518 1519 1520 1524 1528
1494 1489 1483 1478 1474 1471 1470 1469 1469 1469 1469 1469 1469 1469 1470 1472 1472 1467 1474 1478 1483 1489 1494 1496 1502 1506 1508 1508 1511 1513 1512 1516 1518 1523 1532 1534 1528 1530 1529 1526 1518 1519 1522 1524 1529
1492 1487 1481 1476 1471 1469 1468 1469 1468 1468 1468 1468 1468 1467 1469 1472 1473 1465 1467 1477 1479 1483 1490 1494 1498 1502 1503 1505 1506 1512 1513 1512 1517 1526 1534 1536 1534 1528 1528 1527 1521 1519 1521 1523 1527
1492 1487 1482 1477 1473 1470 1469 1467 1468 1468 1468 1468 1468 1467 1468 1469 1464 1465 1465 1466 1471 1479 1485 1489 1493 1499 1499 1501 1505 1507 1505 1510 1516 1526 1531 1534 1537 1537 1529 1524 1522 1517 1520 1522 1526
1492 1487 1482 1477 1474 1471 1470 1469 1468 1469 1468 1468 1468 1468 1468 1466 1462 1462 1459 1460 1464 1473 1480 1486 1489 1497 1499 1499 1503 1503 1505 1511 1518 1523 1526 1532 1534 1537 1524 1525 1524 1518 1519 1522 1525
1492 1487 1482 1478 1475 1472 1471 1471 1469 1469 1468 1468 1468 1467 1466 1465 1462 1463 1460 1459 1465 1471 1478 1483 1489 1495 1496 1499 1502 1504 1510 1513 1513 1516 1521 1525 1534 1535 1525 1527 1523 1520 1520 1522 1525
1492 1486 1482 1479 1476 1472 1472 1471 1471 1469 1468 1468 1468 1468 1464 1462 1461 1462 1462 1464 1468 1471 1478 1483 1490 1493 1495 1495 1501 1505 1509 1516 1510 1511 1515 1518 1522 1520 1525 1525 1522 1520 1519 1521 1523
1490 1486 1483 1479 1477 1474 1472 1471 1470 1470 1468 1468 1469 1468 1464 1463 1463 1462 1463 1466 1466 1471 1476 1484 1488 1493 1494 1496 1505 1504 1514 1511 1512 1507 1509 1512 1518 1514 1518 1519 1518 1517 1517 1518 1520
1490 1485 1483 1479 1477 1475 1473 1472 1471 1471 1470 1470 1470 1471 1465 1464 1462 1463 1461 1462 1463 1464 1474 1481 1486 1491 1494 1494 1497 1497 1505 1502 1507 1505 1506 1509 1513 1509 1511 1513 1511 1513 1514 1515 1516
1488 1485 1481 1480 1477 1475 1472 1472 1474 1473 1470 1471 1471 1468 1464 1464 1463 1465 1466 1464 1467 1468 1468 1476 1482 1480 1485 1490 1490 1494 1501 1503 1503 1501 1507 1506 1511 1510 1509 1509 1509 1508 1510 1511 1513
1486 1482 1479 1477 1477 1475 1472 1470 1472 1473 1471 1467 1467 1466 1464 1464 1466 1466 1467 1469 1471 1469 1478 1481 1479 1483 1486 1489 1493 1497 1504 1507 1503 1501 1505 1508 1506 1506 1504 1504 1505 1505 1505 1507 1509
1483 1478 1474 1474 1474 1475 1472 1471 1470 1471 1471 1468 1467 1465 1464 1465 1466 1466 1469 1472 1474 1474 1479 1469 1477 1481 1486 1491 1496 1500 1505 1508 1506 1505 1507 1509 1512 1506 1499 1500 1500 1500 1502 1503 1505
1479 1475 1472 1472 1473 1473 1472 1471 1470 1470 1471 1469 1468 1467 1465 1465 1468 1467 1468 1471 1472 1471 1476 1477 1479 1483 1489 1494 1496 1503 1498 1500 1506 1511 1520 1509 1525 1504 1496 1494 1495 1495 1497 1499 1502
1477 1473 1470 1468 1469 1469 1472 1470 1469 1469 1469 1471 1468 1467 1464 1464 1468 1465 1466 1465 1466 1474 1476 1481 1480 1486 1490 1491 1494 1499 1495 1500 1505 1513 1514 1515 1524 1501 1495 1497 1488 1486 1489 1494 1498
1473 1470 1467 1467 1468 1468 1469 1470 1470 1478 1480 1469 1468 1467 1469 1463 1465 1467 1466 1466 1470 1470 1475 1480 1483 1488 1491 1492 1492 1494 1499 1505 1511 1518 1533 1514 1518 1503 1493 1485 1483 1482 1485 1490 1494
1469 1467 1464 1464 1466 1468 1467 1470 1478 1477 1470 1467 1463 1467 1465 1462 1460 1462 1467 1468 1469 1478 1486 1487 1491 1492 1492 1493 1493 1495 1503 1536 1529 1533 1519 1514 1518 1485 1480 1479 1478 1479 1482 1487 1492
1466 1463 1464 1465 1465 1467 1468 1472 1480 1468 1463 1461 1462 1465 1465 1464 1469 1470 1467 1468 1469 1471 1484 1486 1494 1494 1495 1494 1494 1497 1501 1521 1521 1529 1520 1512 1510 1482 1471 1470 1470 1474 1478 1485 1489
1464 1464 1466 1466 1465 1466 1470 1479 1472 1465 1455 1458 1461 1463 1462 1463 1465 1470 1472 1472 1471 1472 1476 1485 1495 1496 1494 1496 1497 1498 1508 1502 1514 1516 1535 1509 1493 1477 1471 1470 1470 1473 1478 1482 1486
1463 1463 1464 1466 1467 1467 1470 1466 1462 1456 1454 1455 1459 1457 1462 1462 1463 1466 1470 1469 1470 1471 1473 1482 1492 1495 1496 1498 1499 1499 1499 1508 1522 1522 1514 1501 1498 1483 1474 1471 1469 1472 1476 1480 1485
1462 1466 1468 1469 1468 1467 1476 1469 1456 1455 1454 1455 1455 1453 1451 1455 1457 1461 1469 1469 1468 1471 1473 1478 1487 1497 1498 1494 1493 1501 1501 1502 1501 1505 1513 1506 1492 1471 1466 1465 1465 1470 1474 1479 1483
1462 1465 1467 1467 1470 1466 1468 1462 1454 1454 1455 1454 1453 1452 1453 1451 1454 1457 1461 1460 1463 1466 1470 1471 1485 1493 1492 1490 1492 1492 1492 1491 1497 1509 1512 1513 1493 1467 1463 1463 1466 1470 1475 1479 1482
1464 1467 1466 1465 1465 1467 1460 1458 1457 1454 1454 1455 1454 1453 1453 1455 1458 1458 1460 1462 1463 1464 1468 1469 1484 1492 1495 1494 1491 1489 1489 1486 1491 1499 1505 1505 1486 1466 1464 1465 1467 1470 1474 1478 1481
1467 1471 1470 1470 1467 1467 1466 1461 1459 1456 1455 1455 1455 1454 1454 1455 1456 1461 1462 1463 1462 1464 1465 1467 1478 1483 1484 1479 1483 1488 1482 1484 1487 1501 1482 1491 1476 1469 1468 1468 1468 1471 1473 1476 1479
1469 1474 1476 1472 1469 1472 1468 1465 1460 1460 1456 1455 1457 1456 1457 1458 1458 1463 1464 1465 1465 1465 1467 1469 1484 1483 1477 1474 1477 1478 1477 1478 1479 1472 1478 1467 1474 1467 1466 1465 1466 1468 1471 1474 1477
1475 1477 1476 1476 1473 1472 1469 1469 1466 1460 1459 1456 1458 1459 1457 1459 1460 1462 1463 1466 1465 1467 1468 1472 1487 1485 1489 1475 1475 1476 1474 1473 1470 1471 1472 1471 1470 1461 1459 1462 1465 1466 1468 1471 1473
1477 1478 1478 1476 1474 1472 1477 1475 1472 1467 1463 1461 1461 1460 1460 1461 1460 1460 1460 1460 1461 1466 1471 1474 1485 1497 1498 1479 1477 1480 1465 1465 1463 1462 1462 1470 1452 1457 1458 1458 1458 1462 1465 1467 1469